FW3030 Weather Reports


Display with metric or nautical units.
time (UTC)temp
F
wind
direction
speed
MPH
gust
MPH
rain 1hr
in
rain 24hr
in
rain mn
in
humidity
%
barometer
mb
20260504234632 50 329 4.0 12.0 0.00 0.00 0.00 40 1004.4
20260504233100 50 317 4.0 15.0 0.00 0.00 0.00 41 1004.6
20260504231604 49 265 5.0 15.0 0.00 0.00 0.00 43 1004.3
20260504230100 50 275 7.0 17.0 0.00 0.00 0.00 42 1004.4
20260504224600 51 275 6.0 16.0 0.00 0.00 0.00 41 1004.0
20260504223057 51 275 7.0 15.0 0.00 0.00 0.00 42 1003.9
20260504221609 51 285 5.0 14.0 0.00 0.00 0.00 43 1003.6
20260504220058 53 339 7.0 14.0 0.00 0.00 0.00 39 1003.3
20260504214559 53 281 4.0 17.0 0.00 0.00 0.00 41 1003.1
20260504213059 53 289 4.0 13.0 0.00 0.00 0.00 41 1002.9
20260504211600 54 316 6.0 18.0 0.00 0.00 0.00 40 1002.8
20260504210110 54 278 6.0 15.0 0.00 0.00 0.00 41 1002.6
20260504204605 53 318 6.0 14.0 0.00 0.00 0.00 41 1002.6
20260504203104 53 325 6.0 15.0 0.00 0.00 0.00 40 1002.4
20260504201556 54 275 6.0 17.0 0.00 0.00 0.00 42 1002.3
20260504200100 55 323 5.0 15.0 0.00 0.00 0.00 44 1002.3
20260504194609 55 269 6.0 17.0 0.00 0.00 0.00 42 1002.0
20260504193058 55 335 6.0 19.0 0.00 0.00 0.00 41 1001.8
20260504191558 55 259 4.0 14.0 0.00 0.00 0.00 46 1001.7
20260504190128 55 302 5.0 19.0 0.00 0.00 0.00 44 1001.5
20260504184559 56 315 4.0 15.0 0.00 0.00 0.00 43 1001.0
20260504183058 56 17 7.0 15.0 0.00 0.00 0.00 44 1001.1
20260504181600 57 303 6.0 13.0 0.00 0.00 0.00 45 1000.7
20260504180155 56 264 5.0 16.0 0.00 0.00 0.00 44 1000.5
20260504174600 55 310 5.0 18.0 0.00 0.00 0.00 48 1000.5
20260504173120 56 315 8.0 19.0 0.00 0.00 0.00 46 1000.2
20260504171558 56 352 4.0 20.0 0.00 0.00 0.00 47 1000.2
20260504140128 55 252 5.0 16.0 0.00 0.00 0.00 55 997.9
20260504120114 53 237 3.0 11.0 0.00 0.00 0.00 59 996.5
20260504090104 59 269 4.0 11.0 0.00 0.00 0.00 37 994.4
20260504081605 59 181 3.0 10.0 0.00 0.00 0.00 36 995.3
20260504050136 58 111 2.0 5.0 0.00 0.00 0.00 40 999.4
20260504044559 58 178 1.0 6.0 0.00 0.00 0.00 41 999.7
20260504043101 58 181 1.0 4.0 0.00 0.00 0.00 41 1000.1
20260504041601 58 192 1.0 4.0 0.00 0.00 0.00 41 1000.4
20260504040105 58 173 1.0 4.0 0.00 0.00 0.00 41 1000.8
20260504034558 58 153 1.0 3.0 0.00 0.00 0.00 41 1001.2
20260504033058 58 168 1.0 2.0 0.00 0.00 0.00 41 1001.6
20260504031624 58 169 0.0 3.0 0.00 0.00 0.00 41 1002.0
20260504030058 59 155 0.0 2.0 0.00 0.00 0.00 41 1002.3
20260504024559 59 160 1.0 4.0 0.00 0.00 0.00 40 1002.6
20260504023100 60 186 0.0 2.0 0.00 0.00 0.00 38 1002.8
20260504021610 61 0 0.0 0.0 0.00 0.00 0.00 37 1002.9
20260504020106 63 0 0.0 0.0 0.00 0.00 0.00 34 1003.0
20260504014600 64 0 0.0 1.0 0.00 0.00 0.00 32 1003.2
20260504013113 65 0 0.0 4.0 0.00 0.00 0.00 31 1003.3
20260504011600 66 250 2.0 8.0 0.00 0.00 0.00 29 1003.4
20260504010120 66 270 4.0 12.0 0.00 0.00 0.00 29 1003.5
20260504004600 67 244 5.0 10.0 0.00 0.00 0.00 28 1003.5
20260504003057 68 269 3.0 10.0 0.00 0.00 0.00 26 1003.6
20260504001611 69 0 2.0 11.0 0.00 0.00 0.00 27 1003.9
20260504000111 69 252 2.0 8.0 0.00 0.00 0.00 27 1003.9